INTELSAT 10-02

Last updated on Sat Sep 05 2026 00:03:01 GMT+0000 (Coordinated Universal Time)

1 28358U 04022A 26247.59565186 -.00000019 00000+0 00000+0 0 9999 2 28358 0.0536 268.3564 0000209 353.8301 294.9669 1.00268634 81352
UTC large
Height (km)
Speed (km/s)
/
Latitude / Longitude
Inclination (degrees)
Orbital Period (minutes)
Azimuth
Elevation
Range (km)
Doppler Factor

Next 0 passes for location: London (51.5072 / 0.1276)

No passes found over London.
INTELSAT 10-02